Weather Service Report


257 
ASUS43 KDMX 182206
RWRIA 

WEATHER ROUNDUP FOR IOWA
NATIONAL WEATHER SERVICE DES MOINES IA
400 PM CST WED JAN 18 2017

NOTE: "FAIR" INDICATES FEW OR NO CLOUDS BELOW 12,000 FEET WITH NO
SIGNIFICANT WEATHER AND/OR OBSTRUCTIONS TO VISIBILITY.

* - THESE STATIONS ARE NOT NWS STATIONS...THUS NOT UNDER NWS
QUALITY CONTROL.  THEY ALSO DO NOT REPORT WEATHER SUCH 
AS PRECIPITATION OR FOG.  

IAZ001>003-012>014-020>022-031>034-043>046-182300-
   NORTHWEST IOWA
  
CITY           SKY/WX    TMP DP  RH WIND       PRES   REMARKS
CARROLL *      SUNNY     46  43  87 S13       29.91S                  
CHEROKEE *     SUNNY     46  40  78 SW10      29.88R                  
DENISON *      SUNNY     46  41  81 S13       29.88S                  
LE MARS *      SUNNY     48  41  76 S10       29.86S                  
ORANGE CITY *  SUNNY     45  41  87 S9        29.85R                  
SHELDON *      SUNNY     43  43 100 S15       29.83S                  
SIOUX CITY     SUNNY     50  40  68 S8        29.86F                  
SPENCER        SUNNY     42  39  89 S14       29.86R                  
STORM LAKE *   SUNNY     45  39  81 S13       29.88R                  
$$
 
IAZ055>058-069>071-079>083-090>094-182300-
   SOUTHWEST IOWA
  
CITY           SKY/WX    TMP DP  RH WIND       PRES   REMARKS
ATLANTIC *     SUNNY     46  39  76 S15       29.93S                  
AUDUBON *      SUNNY     46  39  76 S13G18    29.93R                  
CLARINDA *     SUNNY     48  39  71 S12       29.98S                  
COUNCIL BLFS * SUNNY     48  39  71 S15G22    29.91S                  
CRESTON *      SUNNY     41  37  87 S13G20    29.98S                  
HARLAN  *      SUNNY     46  41  81 S15       29.94S                  
LAMONI         SUNNY     39  36  89 S12       30.00F WCI  32          
RED OAK *      SUNNY     48  41  76 S12       29.94F                  
SHENANDOAH *   SUNNY     48  41  76 S13       29.96S                  
$$
 
IAZ047>049-059>061-072>074-084-182300-
   CENTRAL IOWA
  
CITY           SKY/WX    TMP DP  RH WIND       PRES   REMARKS
AMES           SUNNY     46  40  79 S8        29.96R                  
ANKENY *       SUNNY     46  36  66 S8G15     29.98R                  
BOONE *        SUNNY     46  37  71 S9G16     29.93S                  
CHARITON *     SUNNY     41  37  87 S13       30.00S                  
DES MOINES     MOSUNNY   45  36  70 S14       29.98R                  
GRINNELL*      SUNNY     43  37  79 S10       29.99S                  
KNOXVILLE *    SUNNY     43  36  75 S14       29.98S                  
MARSHALLTOWN   CLEAR     42  37  82 S12       29.96S                  
NEWTON *       SUNNY     43  37  81 S10       29.98R                  
PELLA *        SUNNY     45  36  71 S10       30.01S                  
PERRY *          N/A     46  41  84 S13       29.94S                  
$$
 
IAZ004>006-015-016-023>025-035-036-182300-
   NORTH CENTRAL IOWA
  
CITY           SKY/WX    TMP DP  RH WIND       PRES   REMARKS
ALGONA *       SUNNY     41  39  93 S15       29.90R                  
CLARION *      CLEAR     41  41 100 S9        29.92R                  
ESTHERVILLE    SUNNY     40  38  93 S9        29.85R WCI  34          
FORT DODGE *   SUNNY     45  37  76 S10       29.92S                  
MASON CITY     CLEAR     35  32  88 S13       29.92S WCI  26          
FOREST CITY *    N/A     37  37 100 S9        29.90S WCI  31          
WEBSTER CITY * SUNNY     43  41  93 S13       29.91S                  
IOWA FALLS *     N/A     40  37  89 S10       29.95R WCI  33          
$$

IAZ007>011-017>019-026>030-037>042-050>054-066-182300-
   NORTHEAST IOWA
  
CITY           SKY/WX    TMP DP  RH WIND       PRES   REMARKS
CEDAR RAPIDS   PTCLDY    38  35  89 S12       30.00S FOG     WCI  30  
CHARLES CITY * PTCLDY    34  34 100 S12       29.95S WCI  25          
CLINTON *      CLOUDY    36  33  89 SW8       30.04F WCI  30          
DECORAH *      CLOUDY    32  30  93 VRB7G14   29.95R FOG     WCI  26  
DUBUQUE        CLOUDY    33  31  92 SW8       30.01S FOG     WCI  26  
MONTICELLO *   CLOUDY    36  34  93 S9        30.02S WCI  29          
OELWEIN *      FOG       32  32 100 S14       29.98R VSB 1   WCI  22  
WATERLOO       CLEAR     37  33  85 S13       29.97S WCI  29          
$$
 
IAZ064-065-067-068-078-182300-
   EAST CENTRAL IOWA
  
CITY           SKY/WX    TMP DP  RH WIND       PRES   REMARKS
DAVENPORT      CLEAR     39  33  79 S7        30.05S WCI  34          
IOWA CITY      PTCLDY    42  36  79 S7        30.04S                  
MUSCATINE *    CLEAR     43  36  75 S8        30.04F                  
QUAD CITIES    CLEAR     42  35  76 S3        30.04S                  
$$
 
IAZ062-063-075>077-085>089-095>099-182300-
   SOUTHEAST IOWA
  
CITY           SKY/WX    TMP DP  RH WIND       PRES   REMARKS
BURLINGTON     CLOUDY    41  37  86 S14       30.05S                  
FAIRFIELD *    CLEAR     43  36  75 S12G17    30.03R                  
FORT MADISON * CLOUDY    45  37  76 S9        30.06S                  
KEOKUK *       CLOUDY    45  37  76 S10       30.05S                  
OSKALOOSA *      N/A     43  37  78 S12       30.02R                  
OTTUMWA        SUNNY     44  36  73 S10       30.01S                  
WASHINGTON *   CLEAR     43  37  81 S12       30.04R                  
$$

ABBREVIATIONS USED IN REMARKS
   TC - TEMPERATURES IN CELSIUS
  WCI - WIND CHILL INDEX
   HX - HEAT INDEX
  VSB - VISIBILITY  
$$

  

Return to Home page


Western Regional Climate Center, wrcc@dri.edu